Probability
0 0 0 0 0 3 0 0 0 0 0 0 0 0 0 0 0 0 0 0 0 0 0 0 0 0 0 0 0 0 0 0 0 0 0 0 0 0 0 0 0 0 0
0 0 0 0 0 0 0 0 0 0 0 0 0 0 0 0 0 0 0 0 0 0 0 0 0 0 0 0 0 0 0 0 0 0 0 0 0 0 0 0 0 0 0
0 0 0 0 0 0 0 0 0 0 0 0 0 0 0 0 0 0 0 0 0 0 0 0 0 0 0 0 0 0 0 0 0 0 0 0 0 0 0 0 0 0 0
0 0 0 0 0 0 0 0 0 0 0 0 0 0 0 0 0 0 0 0 0 0 0 0 0 0 0 0 0 0 0 0 0 0 0 0 0 0 0 0 0 0 0
0 0 0 0 0 0 0 0 0 0 0 0 0 0 0 0 0 0 0 0 0 0 0 0 0 0 0 0 0 0 0 0 0 0 0 0 0 0 0 0 0 0 0
0 0 0 0 0 0 0 0 0 0 0 0 0 0 0 0 0 0 0 0 0 0 0 0 0 0 0 0 0 0 0 0 0 0 0 0 0 0 0 0 0 0 0
0 0 0 0 0 0 0 0 0 0 0 0 0 0 0 0 0 0 0 0 0 0 0 0 0 0 0 0 0 0 0 0 0 0 0 0 0 0 0 0 0 0 0
0 0 0 0 0 0 0 0 0 0 0 0 0 0 0 0 0 0 0 0 0 0 0 0 0 0 0 0 0 0 0 0 0 0 0 0 0 0 0 0 0 0 0
0 0 0 0 0 0 0 0 0 0 0 0 0 0 0 0 0 0 0 0 0 0 0 0 0 0 0 0 0 0 0 0 0 0 0 0 0 0 0 0 0 0 0
0 0 0 0 0 0 0 0 0 0 0 0 0 0 0 0 0 0 0 0 0 0 0 0 0 0 0 0 0 0 0 0 0 0 0 0 0 0 0 0 0 0 0
0 0 0 0 0 0 0 0 0 0 0 0 0 0 0 0 0 0 0 0 0 0 0 0 0 0 0 0 0 0 0 0 0 0 0 0 0 0 0 0 0 0 0
0 0 0 0 0 0 0 0 0 0 0 0 0 0 0 0 0 0 0 0 0 0 0 0 0 0 0 0 0 0 0 0 0 0 0 0 0 0 0 0 0 0 0
0 0 0 0 0 0 0 0 0 0 0 0 0 0 0 0 0 0 0 0 0 0 0 0 0 0 0 0 0 0 0 0 0 0 0 0 0 0 0 0 0 0 0
0 0 0 0 0 0 0 0 0 0 0 0 0 0 0 0 0 0 0 0 0 0 0 0 0 0 0 0 0 0 0 0 0 0 0 0 0 0 0 0 0 0 0
0 0 0 0 0 0 0 0 0 0 0 0 0 0 0 0 0 0 0 0 0 0 0 0 0 0 0 0 0 0 0 0 0 0 0 0 0 0 0 0 0 0 0
0 0 0 0 0 0 0 0 0 0 0 0 0 0 0 0 0 0 0 0 0 0 0 0 0 0 0 0 0 0 0 0 0 0 0 0 0 0 0 0 0 0 0
0 0 0 0 0 0 0 0 0 0 0 0 0 0 0 0 0 0 0 0 0 0 0 0 0 0 0 0 0 0 0 0 0 0 0 0 0 0 0 0 0 0 0
0 0 0 0 0 0 0 0 0 0 0 0 0 0 0 0 0 0 0 0 0 0 0 0 0 0 0 0 0 0 0 0 0 0 0 0 0 0 0 0 0 0 0
0 0 0 0 0 0 0 0 0 0 0 0 0 0 0 0 0 0 0 0 0 0 0 0 0 0 0 0 0 0 0 0 0 0 0 0 0 0 0 0 0 0 0
0 0 0 0 0 0 0 0 0 0 0 0 0 0 0 0 0 0 0 0 0 0 0 0 0 0 0 0 0 0 0 0 0 0 0 0 0 0 0 0 0 0 0
0 0 0 0 0 0 0 0 0 0 0 0 0 0 0 0 0 0 0 0 0 0 0 0 0 0 0 0 0 0 0 0 0 0 0 0 0 0 0 0 0 0 0
0 0 0 0 0 0 0 0 0 0 0 0 0 0 0 0 0 0 0 0 0 0 0 0 0 0 0 0 0 0 0 0 0 0 0 0 0 0 0 0 0 0 0
0 0 0 0 0 0 0 0 0 0 0 0 0 0 0 0 0 0 0 0 0 0 0 0 0 0 0 0 0 0 0 0 0 0 0 0 0 0 0 0 0 0 0
0 0 0 0 0 0 0 0 0 0 0 0 0 0 0 0 0 0 0 0 0 0 0 0 0 0 0 0 0 0 0 0 0 0 0 0 0 0 0 0 0 0 0
0 0 0 0 0 0 0 0 0 0 0 0 0 0 0 0 0 0 0 0 0 0 0 0 0 0 0 0 0 0 0 0 0 0 0 0 0 0 0 0 0 0 0
0 0 0 0 0 0 0 0 0 0 0 0 0 0 0 0 0 0 0 0 0 0 0 0 0 0 0 0 0 0 0 0 0 0 0 0 0 0 0 0 0 0 0
Height
5633 5638 5643 5648 5653 5659 5667 5675 5682 5689 5696 5704 5712 5720 5726 5733 5740 5747 5753 5758 5763 5769 5775 5780 5785 5790 5794 5797 5800 5802 5805 5807 5808 5809 5810 5810 5810 5810 5809 5807 5805 5803 5801
5622 5628 5633 5638 5643 5650 5657 5664 5672 5679 5686 5694 5702 5711 5718 5725 5731 5739 5745 5751 5756 5762 5768 5773 5778 5782 5786 5790 5793 5796 5798 5800 5802 5803 5804 5805 5805 5804 5803 5801 5800 5797 5795
5613 5618 5623 5628 5634 5640 5647 5655 5662 5670 5677 5685 5693 5701 5708 5715 5723 5730 5736 5743 5749 5755 5760 5766 5771 5775 5779 5783 5786 5789 5791 5794 5795 5797 5798 5799 5799 5798 5797 5795 5793 5791 5789
5605 5609 5614 5619 5625 5631 5638 5645 5653 5661 5669 5676 5684 5692 5700 5708 5715 5722 5728 5735 5741 5747 5752 5758 5763 5767 5772 5776 5779 5782 5784 5787 5788 5790 5791 5792 5792 5792 5791 5789 5787 5785 5782
5597 5601 5606 5611 5617 5623 5630 5638 5645 5652 5660 5668 5675 5683 5692 5699 5706 5713 5720 5727 5733 5739 5745 5750 5755 5760 5764 5768 5772 5775 5777 5780 5781 5783 5784 5784 5784 5784 5784 5783 5780 5778 5775
5590 5594 5599 5604 5610 5616 5623 5630 5637 5644 5652 5659 5667 5675 5683 5690 5698 5705 5712 5718 5725 5731 5737 5742 5747 5752 5756 5760 5764 5767 5770 5772 5774 5776 5776 5777 5777 5777 5776 5775 5773 5770 5767
5584 5588 5592 5597 5603 5609 5616 5622 5629 5636 5644 5651 5659 5667 5675 5682 5690 5697 5704 5711 5717 5723 5729 5734 5739 5744 5748 5752 5756 5759 5762 5764 5766 5768 5769 5769 5769 5769 5768 5767 5765 5763 5760
5577 5581 5586 5591 5597 5603 5609 5615 5622 5628 5635 5642 5650 5658 5666 5674 5681 5688 5696 5702 5709 5715 5721 5726 5731 5735 5740 5744 5748 5751 5754 5756 5758 5760 5761 5762 5762 5761 5760 5759 5757 5755 5752
5571 5575 5579 5584 5590 5596 5602 5608 5615 5621 5627 5633 5641 5648 5657 5665 5672 5679 5686 5693 5700 5706 5712 5717 5722 5726 5731 5735 5739 5743 5746 5748 5750 5752 5753 5753 5753 5753 5752 5750 5749 5747 5744
5565 5569 5573 5578 5583 5588 5595 5600 5607 5613 5619 5625 5632 5640 5648 5656 5664 5671 5678 5685 5691 5697 5703 5708 5713 5718 5722 5726 5730 5734 5737 5740 5742 5743 5745 5745 5745 5745 5743 5742 5740 5737 5735
5559 5562 5566 5571 5575 5581 5587 5593 5599 5605 5611 5618 5625 5632 5640 5648 5655 5663 5669 5676 5682 5688 5694 5699 5704 5709 5714 5718 5722 5725 5728 5731 5733 5735 5736 5737 5736 5736 5735 5733 5731 5729 5726
5552 5555 5559 5563 5568 5573 5579 5585 5591 5597 5603 5610 5617 5625 5632 5640 5647 5655 5661 5667 5673 5679 5685 5690 5695 5700 5705 5709 5713 5716 5719 5722 5724 5726 5727 5728 5727 5727 5726 5724 5722 5720 5717
5545 5548 5551 5555 5560 5565 5570 5577 5583 5589 5595 5602 5609 5616 5623 5631 5638 5645 5652 5658 5664 5670 5675 5681 5686 5691 5696 5700 5704 5707 5710 5713 5715 5717 5718 5718 5718 5718 5717 5715 5714 5711 5708
5537 5540 5543 5547 5552 5556 5562 5568 5574 5580 5586 5593 5600 5607 5615 5622 5629 5636 5643 5649 5655 5661 5666 5672 5677 5682 5687 5691 5695 5698 5701 5704 5706 5707 5708 5709 5709 5709 5708 5706 5704 5702 5699
5529 5531 5535 5539 5543 5548 5553 5559 5565 5571 5577 5584 5591 5598 5605 5612 5620 5627 5633 5640 5645 5651 5657 5662 5668 5672 5677 5682 5685 5689 5691 5694 5696 5697 5699 5699 5700 5700 5699 5697 5695 5693 5690
5520 5523 5526 5530 5534 5539 5544 5549 5556 5562 5568 5575 5581 5588 5595 5602 5610 5617 5623 5630 5636 5642 5647 5653 5658 5663 5668 5672 5676 5679 5682 5684 5686 5688 5689 5689 5690 5690 5689 5687 5686 5683 5681
5511 5514 5518 5522 5526 5530 5535 5540 5546 5552 5558 5565 5571 5578 5585 5592 5599 5606 5612 5619 5626 5632 5637 5643 5648 5653 5658 5662 5666 5669 5672 5674 5676 5678 5679 5680 5680 5680 5679 5678 5676 5674 5671
5502 5504 5508 5512 5516 5520 5525 5530 5536 5542 5548 5554 5561 5568 5575 5582 5588 5595 5602 5609 5616 5622 5627 5633 5638 5643 5648 5652 5656 5658 5661 5664 5666 5668 5669 5670 5670 5670 5669 5667 5666 5664 5662
5493 5495 5498 5502 5506 5510 5515 5520 5525 5531 5537 5544 5550 5557 5564 5571 5578 5585 5591 5598 5605 5611 5617 5622 5628 5633 5638 5642 5645 5648 5651 5654 5657 5658 5659 5660 5660 5660 5659 5658 5656 5655 5652
5483 5485 5488 5492 5496 5500 5505 5510 5515 5521 5527 5533 5539 5546 5553 5560 5567 5575 5581 5588 5594 5601 5606 5612 5618 5623 5627 5631 5635 5638 5641 5644 5647 5648 5650 5651 5651 5650 5649 5648 5647 5645 5643
5474 5476 5479 5482 5486 5490 5495 5500 5505 5511 5517 5523 5529 5536 5543 5550 5557 5564 5571 5577 5584 5590 5596 5602 5607 5612 5617 5621 5625 5628 5631 5634 5636 5638 5640 5641 5641 5640 5640 5639 5638 5636 5634
5464 5466 5469 5472 5475 5479 5484 5489 5494 5500 5506 5512 5519 5525 5531 5538 5545 5552 5559 5566 5572 5578 5584 5590 5596 5601 5606 5610 5614 5618 5621 5623 5626 5628 5629 5630 5631 5631 5630 5629 5628 5627 5624
5455 5457 5459 5462 5465 5469 5473 5479 5484 5489 5495 5501 5508 5514 5520 5527 5534 5541 5548 5554 5560 5567 5574 5579 5585 5591 5596 5600 5604 5607 5610 5613 5615 5617 5619 5620 5621 5621 5620 5620 5619 5617 5615
5445 5447 5449 5452 5455 5458 5462 5467 5472 5478 5484 5490 5496 5503 5509 5515 5522 5529 5536 5543 5550 5556 5563 5569 5574 5580 5585 5590 5593 5596 5599 5602 5605 5607 5609 5610 5611 5611 5611 5610 5609 5607 5605
5434 5436 5439 5442 5445 5448 5452 5456 5461 5466 5472 5479 5485 5492 5498 5505 5511 5518 5525 5532 5539 5545 5552 5558 5564 5570 5575 5579 5583 5586 5589 5592 5595 5597 5598 5600 5600 5601 5601 5600 5599 5598 5596
5424 5426 5428 5431 5435 5438 5441 5445 5449 5455 5461 5467 5474 5481 5487 5494 5500 5507 5514 5520 5527 5534 5540 5547 5553 5559 5564 5568 5572 5576 5579 5582 5585 5587 5589 5590 5591 5591 5591 5591 5590 5588 5587
Wind_Speed
42 42 44 46 47 50 51 52 53 53 54 54 54 53 51 50 50 49 48 47 45 44 43 42 40 39 37 36 34 33 32 31 29 28 27 26 26 26 26 27 27 28 29
40 41 43 45 46 48 49 51 52 53 53 54 54 53 52 50 50 49 47 47 45 44 43 42 41 40 39 37 36 35 33 32 31 30 29 28 27 27 28 29 29 30 30
37 40 42 44 45 46 49 50 52 52 52 53 54 53 53 51 51 50 48 48 47 45 44 42 41 40 39 38 37 35 34 33 32 31 30 30 29 29 29 30 31 31 32
37 39 40 42 44 44 47 49 51 51 52 52 54 53 53 51 50 50 50 48 48 46 44 43 42 41 40 39 38 36 35 34 33 32 32 31 31 31 31 32 32 33 34
36 37 39 40 42 44 46 48 49 51 51 52 52 53 53 51 50 50 50 48 47 46 45 43 42 41 41 40 38 37 36 35 34 33 33 32 33 33 33 33 34 35 36
35 36 38 39 41 43 45 47 47 49 51 52 52 52 53 53 53 51 51 48 47 47 46 45 43 42 42 41 39 38 37 36 35 35 34 34 34 34 34 35 36 36 37
34 35 37 39 40 42 44 46 47 47 48 50 52 53 53 53 53 51 51 49 48 46 46 45 44 43 42 41 40 39 37 37 36 35 35 35 35 35 36 36 37 37 38
31 34 36 37 40 42 43 45 47 47 47 48 50 52 53 53 53 52 51 49 47 47 45 45 44 43 43 42 41 40 39 38 37 37 36 36 36 36 37 37 38 38 39
31 34 34 36 39 42 44 45 47 47 47 47 48 51 52 52 51 52 52 49 46 45 46 45 44 44 43 43 41 41 40 39 38 37 37 37 37 38 38 38 39 40 40
31 33 35 35 37 41 43 45 46 47 45 47 48 49 51 52 51 51 51 48 46 44 44 44 44 44 43 43 42 41 41 40 39 38 38 38 38 38 38 39 39 40 41
32 33 35 36 38 40 42 45 46 47 46 47 48 49 51 51 50 49 47 48 48 47 46 43 42 42 42 42 42 42 41 40 40 39 39 39 39 39 39 39 40 40 41
34 35 36 37 39 40 41 44 47 47 46 47 49 49 49 50 49 49 48 47 47 46 45 44 44 43 42 41 41 41 41 40 40 40 40 40 39 39 39 40 40 41 42
34 36 38 39 40 42 41 43 47 48 48 48 49 48 48 49 48 47 48 47 47 46 46 45 45 45 43 42 41 41 41 40 41 41 41 40 39 39 39 40 40 41 42
34 37 39 40 41 42 42 43 46 47 49 50 50 49 48 48 49 49 48 47 47 46 46 45 45 45 45 43 42 41 41 40 41 41 41 41 40 39 39 40 41 42 42
35 37 38 40 41 42 44 45 46 46 48 50 51 50 50 50 50 50 49 48 47 46 45 45 45 45 44 43 42 42 42 41 41 40 40 40 40 40 41 41 41 42 42
35 37 39 40 41 42 43 44 46 47 50 51 51 51 52 52 52 51 50 48 47 47 46 45 45 44 44 43 43 43 44 43 42 40 40 40 40 40 40 40 41 42 42
35 37 39 40 41 42 43 44 46 49 50 51 51 51 51 52 52 52 51 49 47 47 47 46 45 44 44 44 43 43 43 43 43 42 41 40 39 39 39 40 41 42 42
35 36 38 40 41 42 43 44 46 49 51 50 51 51 50 49 50 51 51 50 49 47 46 46 45 44 44 44 43 43 43 43 43 42 42 41 39 38 39 40 40 41 41
34 36 38 39 40 41 43 44 46 47 48 49 49 51 50 49 48 50 50 50 49 48 46 46 45 43 43 43 43 43 43 42 42 41 41 40 39 39 40 40 39 40 39
33 35 38 40 41 42 43 44 45 46 48 47 49 51 51 50 49 50 50 50 49 48 47 47 46 44 43 43 43 42 41 41 41 40 40 39 39 40 39 38 38 38 39
34 35 36 38 41 43 44 44 44 46 47 48 48 50 52 51 51 50 50 50 49 48 47 47 46 44 43 42 42 41 40 40 40 39 38 37 38 38 38 37 37 38 39
33 34 35 37 39 43 45 46 45 46 47 48 49 49 50 52 52 51 51 50 50 48 46 45 44 43 42 42 41 40 40 39 38 37 37 37 37 37 37 37 38 37 38
33 34 35 36 37 40 43 45 46 47 47 48 49 49 50 51 52 52 51 50 50 49 47 45 44 43 42 42 41 39 39 38 37 36 36 36 36 36 37 37 37 37 38
35 35 36 37 37 38 41 43 45 47 47 47 47 48 48 48 49 50 50 49 48 48 47 46 45 43 41 41 41 39 38 37 36 36 36 35 36 36 36 36 37 37 37
34 35 36 38 38 38 39 41 44 46 47 47 46 47 47 47 48 48 48 47 47 47 46 45 44 43 41 39 38 38 37 36 35 36 35 35 35 36 36 36 37 37 36
33 34 35 35 36 36 37 39 42 44 46 47 47 47 46 45 46 47 48 48 47 46 46 45 44 43 41 40 40 39 37 37 37 36 36 35 35 36 36 36 36 35 34
Wind_Direction
242 238 238 236 234 230 228 228 226 226 226 225 226 226 226 226 227 228 230 231 231 231 232 234 234 235 237 239 242 245 247 250 253 257 261 267 272 277 283 288 292 295 298
243 239 237 236 232 230 227 226 225 225 225 225 225 226 226 226 227 227 230 231 231 232 233 233 235 236 237 239 242 245 247 250 253 256 261 267 272 277 282 287 291 295 297
242 239 236 234 230 229 227 225 225 224 225 225 224 225 225 226 228 227 229 232 232 232 232 233 235 236 238 240 243 245 247 250 253 257 262 267 272 276 282 286 290 294 297
241 238 235 233 229 228 225 224 224 224 224 224 224 224 225 226 227 227 228 231 232 231 232 233 235 237 238 241 243 245 247 250 253 258 262 267 272 277 281 286 290 294 297
242 238 235 232 229 227 225 223 224 223 223 224 224 224 225 226 226 226 227 230 232 233 233 234 236 237 239 241 243 246 248 251 254 258 263 267 272 277 281 286 289 293 296
242 238 234 231 228 226 224 223 224 223 223 224 224 224 224 225 226 228 228 230 232 233 234 236 237 238 240 242 244 246 249 252 255 259 263 268 273 277 281 285 289 293 295
241 237 234 231 227 225 224 223 223 223 223 224 224 225 225 225 226 228 228 230 232 233 234 236 238 239 240 242 245 247 250 252 255 259 263 268 272 277 281 285 288 292 295
241 236 234 232 227 225 224 224 223 224 225 224 224 224 225 225 226 228 229 230 232 234 235 236 238 239 241 243 245 247 250 253 256 259 264 268 272 277 281 285 288 291 294
241 235 233 232 227 225 225 224 224 225 226 225 223 223 223 224 226 228 229 230 231 233 234 235 237 239 241 243 246 248 250 253 256 260 264 268 272 277 281 284 288 291 293
241 237 233 232 228 225 225 225 225 225 225 225 224 222 223 224 226 227 227 229 231 233 234 235 237 239 241 243 246 248 251 254 256 260 264 268 272 276 280 284 287 290 293
241 237 234 233 228 225 226 226 225 225 225 225 224 223 224 224 225 226 228 230 232 235 235 235 238 240 241 243 246 249 251 253 256 260 264 268 272 276 280 283 287 291 293
243 239 237 235 231 228 227 226 226 225 224 224 224 224 225 225 226 227 228 231 232 234 236 236 238 240 242 243 245 248 251 254 257 261 265 268 272 276 279 282 286 290 293
244 241 239 236 233 230 229 227 227 226 226 225 224 225 226 227 227 228 229 231 232 234 236 238 239 241 242 243 246 248 251 255 259 262 265 269 272 276 278 282 286 290 292
243 241 239 237 234 232 230 228 227 227 226 225 224 226 227 228 229 228 230 232 233 235 237 239 241 242 243 244 246 248 251 255 259 263 266 268 272 275 278 282 285 289 292
243 240 239 238 235 233 231 228 228 228 227 226 225 225 225 227 228 228 230 231 233 235 237 240 242 244 245 246 248 250 252 255 259 263 266 268 272 276 279 282 286 289 292
244 241 238 237 235 235 232 229 229 229 228 227 227 226 227 228 229 229 230 232 232 235 237 240 243 244 245 247 249 252 255 256 259 262 265 269 273 277 280 282 285 288 291
247 242 239 237 236 236 234 230 230 230 229 229 228 228 227 228 229 228 229 231 232 235 237 240 242 245 246 247 249 251 255 258 260 263 265 269 273 275 279 282 285 288 290
251 245 242 238 236 236 234 232 231 231 230 229 228 227 226 227 228 229 231 231 232 235 237 240 242 244 246 248 249 252 256 259 262 264 266 269 271 274 278 282 286 288 290
253 247 243 241 237 236 234 234 232 232 232 230 228 226 225 227 229 230 232 233 234 235 237 239 242 243 245 247 250 253 257 260 262 264 266 269 271 273 277 282 285 288 291
254 250 246 243 240 237 235 235 235 234 232 232 232 229 226 228 229 230 232 234 236 237 238 240 241 242 245 247 249 253 256 259 262 264 266 268 271 274 278 281 285 288 290
254 251 248 245 241 238 236 236 235 234 233 233 234 232 229 229 230 231 232 234 236 237 238 240 241 242 245 248 250 253 255 258 260 262 265 268 271 274 278 281 284 287 290
255 251 248 245 241 239 237 236 236 236 234 234 234 233 233 232 232 233 233 234 236 237 238 238 239 242 245 248 250 252 255 257 259 261 264 267 269 274 277 280 284 286 288
256 252 248 246 243 241 239 237 237 236 235 234 234 234 234 234 235 235 234 235 235 236 238 238 239 242 245 247 250 252 254 256 259 261 264 268 270 273 276 279 282 285 288
256 253 251 248 246 243 241 239 238 237 236 235 235 235 235 234 234 234 234 235 236 237 239 240 241 242 245 247 249 252 253 256 259 262 265 269 272 274 276 279 282 285 287
256 254 251 248 246 245 243 240 238 237 236 235 234 234 235 235 234 234 234 234 236 237 239 240 242 243 244 244 248 250 253 255 257 260 264 268 271 273 276 279 282 283 286
256 254 252 248 247 246 244 241 239 237 236 235 234 233 234 235 234 234 234 234 235 235 236 238 240 242 244 244 246 249 252 254 257 259 263 267 269 272 276 279 282 284 286